[[{"header":{"parameterUnit":"m.s-1","parameterCategory":2,"la1":30.2991,"la2":30.254,"lo1":-89.0895,"lo2":-89.0444,"dy":0.0017,"dx":0.0017,"nx":28,"ny":28,"refTime":"2024-06-06T03:00:00:Z","depth":"0","parameterNumber":2,"parameterNumberName":"U-component_of_CURRENTS"},"data":[0,0,0,0,0,0,0,0,0,0,0,0,0,0,0,0,0,0,0,0,0,0,0,0,0,0,0,0,0,0,0,0,0,0,0,0,0,0,0,0,0,0,0,0,0,0,0,0,0,0,0,0,0,0,0,0,0,0,0.1875,0.1875,0,0.1866,0.1866,0.1866,0.1846,0.1846,0.1845,0.1845,0.1824,0.1824,0.1824,0,0,0,0,0,0,0,0,0,0,0,0,0,0.1894,0.1894,0.1875,0.1875,0.1875,0.1866,0.1866,0.1866,0.1846,0.1846,0.1845,0.1845,0.1824,0.1824,0.1823,0,0,0,0,0,0,0,0,0,0,0,0,0,0.1885,0.1894,0.1875,0.1864,0.1864,0.1866,0.1866,0.1866,0.1846,0.1846,0.1845,0.1845,0.1824,0.1824,0.1823,0.1831,0,0,0.1822,0.1822,0,0,0,0,0,0,0,0,0.1885,0.1884,0.1866,0.1865,0.1864,0.1857,0.1865,0.1854,0.1846,0.1852,0.1845,0.1844,0.1835,0.1834,0.1832,0.183,0.1829,0.1822,0.1822,0.1822,0.1822,0,0,0,0,0,0,0,0.1886,0.1884,0.187,0.1866,0.1865,0.1867,0.1865,0.1863,0.1845,0.1851,0.185,0.1851,0.1834,0.1832,0.1831,0.1828,0.1822,0.1822,0.1822,0.1822,0.1848,0.1849,0,0,0,0,0,0,0.1888,0.1885,0.1871,0.187,0.1875,0.1867,0.1865,0.1859,0.1845,0.1843,0.1851,0.185,0.1833,0.1832,0.183,0.1845,0.1822,0.1821,0.1821,0.1847,0.1848,0.1849,0,0,0,0,0,0,0.1889,0.1887,0.1871,0.1879,0.1877,0.1867,0.1861,0.1859,0.1858,0.1846,0.1843,0.1851,0.1833,0.1831,0.1831,0.1843,0.1821,0.1821,0.1846,0.1847,0.1848,0.1869,0,0,0,0,0,0,0.1889,0.1887,0.1885,0.1878,0.1876,0.1872,0.1862,0.186,0.1859,0.1857,0.1845,0.1843,0.1832,0.1832,0.1831,0.1842,0.1821,0.1844,0.1846,0.1848,0.1867,0.187,0.1874,0,0,0,0,0,0.189,0.1887,0.1885,0.1884,0.1874,0.1872,0.1871,0.1863,0.186,0.186,0.1854,0.1843,0.1843,0.1832,0.1831,0.1842,0.1844,0.1846,0.1848,0.1865,0.187,0.1874,0,0,0,0,0,0,0.1893,0.1884,0.1882,0.1876,0.1876,0.1869,0.1869,0.1867,0.1863,0.1862,0.185,0.1847,0.1857,0.1849,0.1838,0.1857,0.1844,0.1846,0.1857,0.1862,0.1865,0.1865,0.182,0,0,0,0,0,0.1895,0.1889,0.1885,0.1882,0.1882,0.1878,0.1878,0.1873,0.187,0.1867,0.1859,0.1857,0.1865,0.1861,0.1864,0.1869,0.1874,0.1878,0.1882,0.1884,0.1885,0.1913,0.1919,0.1856,0.1856,0.1856,0,0,0.1895,0.1891,0.1887,0.1883,0.1881,0.1883,0.1876,0.1876,0.188,0.1866,0.1867,0.187,0.1872,0.188,0.1883,0.1872,0.1906,0.1887,0.1889,0.1889,0.1916,0.1922,0.1927,0.1857,0.1857,0.1857,0,0,0.1894,0.189,0.1886,0.1888,0.1889,0.1888,0.189,0.1886,0.1886,0.1893,0.1889,0.1898,0.19,0.1902,0.1906,0.1932,0.1928,0.1935,0.1945,0.1972,0.1977,0.1982,0.1995,0.2,0.1931,0.1931,0.1931,0,0.1897,0.1886,0.1886,0.1888,0.1888,0.1892,0.1891,0.1898,0.1895,0.1899,0.1896,0.1916,0.1913,0.1932,0.1939,0.1939,0.195,0.1926,0.1976,0.198,0.1985,0.1997,0.2003,0.1932,0.1932,0.1932,0.1932,0,0.1893,0.1888,0.1888,0.189,0.1894,0.1893,0.1903,0.191,0.1914,0.192,0.1941,0.1944,0.1954,0.196,0.1956,0.1986,0.1983,0.1982,0.1963,0.1992,0.2004,0.201,0.1934,0.1933,0.1933,0.1933,0,0,0.1883,0.1883,0.1882,0.1881,0.1891,0.1892,0.1909,0.192,0.1934,0.1945,0.1964,0.1981,0.1985,0.199,0.199,0.2009,0.2048,0.2007,0.2008,0.2015,0.2102,0.2056,0.2058,0.2057,0.2059,0.2059,0.2097,0,0.1876,0.1873,0.1876,0.1877,0.1875,0.1889,0.1904,0.1922,0.1941,0.1964,0.1984,0.2005,0.1997,0.2006,0.2025,0.2048,0.2065,0.2037,0.2076,0.2077,0.2029,0.2064,0.1985,0.2008,0.2102,0.2103,0.2104,0,0.1865,0.1864,0.1858,0.1864,0.1866,0.1873,0.1896,0.1911,0.1954,0.1971,0.2001,0.2022,0.2054,0.2046,0.2094,0.2078,0.2091,0.2105,0.2107,0.2059,0.2042,0.1995,0.2015,0.1963,0.2113,0.2112,0.2112,0,0.1846,0.1848,0.1838,0.1841,0.1856,0.1861,0.1875,0.1912,0.1928,0.1982,0.2005,0.2047,0.2072,0.2104,0.2128,0.2119,0.2182,0.2172,0.214,0.2136,0.2074,0.2063,0.2043,0.2207,0.2207,0.2207,0.2207,0,0.1828,0.1821,0.1829,0.1825,0.1824,0.1847,0.1858,0.1885,0.1929,0.1955,0.2006,0.2037,0.209,0.213,0.2147,0.2161,0.2197,0.2148,0.2147,0.2078,0.2067,0.2021,0.1958,0.2208,0.2208,0.2208,0.2207,0,0.1802,0.1806,0.1796,0.1807,0.1812,0.1814,0.1839,0.1853,0.1903,0.1944,0.1964,0.2039,0.2091,0.2133,0.2189,0.2176,0.2124,0.2194,0.2101,0.2088,0.1989,0.1929,0.1788,0.1763,0.2163,0.2162,0.2161,0,0.1785,0.1777,0.1777,0.1771,0.1773,0.1781,0.1787,0.1832,0.1853,0.194,0.1959,0.2032,0.207,0.2131,0.2133,0.2153,0.2086,0.2083,0.2045,0.1976,0.1909,0.1798,0.1781,0.1975,0.1972,0.1971,0.1969,0,0.1754,0.1752,0.1745,0.1734,0.1732,0.1728,0.1747,0.1757,0.182,0.1859,0.1917,0.1961,0.2028,0.2022,0.2049,0.2047,0.1953,0.2045,0.2005,0.1782,0.1626,0.1605,0.1953,0.1953,0.1955,0.1956,0.1957,0.1957,0.173,0.1714,0.1704,0.1685,0.1683,0.1669,0.1649,0.168,0.17,0.1748,0.1836,0.1875,0.1932,0.1956,0.1929,0.1847,0.1826,0.1801,0.1742,0.1644,0.1579,0.1881,0.1858,0.1859,0.186,0.1861,0.1862,0,0.1689,0.1673,0.1656,0.1623,0.1594,0.1614,0.1611,0.1585,0.1581,0.1667,0.1708,0.1756,0.1736,0.1752,0.1696,0.1592,0.151,0.1521,0.1364,0.1377,0.1689,0.1644,0.1534,0.1534,0.1534,0.1534,0.1534,0.1534,0.1669,0.1632,0.1613,0.1541,0.1518,0.1462,0.1447,0.1428,0.1463,0.1484,0.152,0.1579,0.1619,0.1517,0.1393,0.1343,0.1236,0.1096,0.113,0.1364,0.1387,0.1408,0.1357,0.1188,0.1187,0.0806,0.0802,0.0799]},{"header":{"parameterUnit":"m.s-1","parameterCategory":2,"la1":30.2991,"la2":30.254,"lo1":-89.0895,"lo2":-89.0444,"dy":0.0017,"dx":0.0017,"nx":28,"ny":28,"refTime":"2024-06-06T03:00:00:Z","depth":"0","parameterNumber":3,"parameterNumberName":"V-component_of_CURRENTS"},"data":[0,0,0,0,0,0,0,0,0,0,0,0,0,0,0,0,0,0,0,0,0,0,0,0,0,0,0,0,0,0,0,0,0,0,0,0,0,0,0,0,0,0,0,0,0,0,0,0,0,0,0,0,0,0,0,0,0,0,0.0375,0.0375,0,0.037,0.037,0.037,0.0357,0.0357,0.0356,0.0356,0.0332,0.0331,0.0331,0,0,0,0,0,0,0,0,0,0,0,0,0,0.0349,0.035,0.0375,0.0375,0.0375,0.037,0.037,0.037,0.0357,0.0357,0.0356,0.0356,0.0332,0.0331,0.0331,0,0,0,0,0,0,0,0,0,0,0,0,0,0.0354,0.035,0.0375,0.0369,0.0368,0.037,0.037,0.037,0.0357,0.0357,0.0356,0.0356,0.0332,0.0331,0.0331,0.0333,0,0,0.0329,0.0328,0,0,0,0,0,0,0,0,0.0353,0.0354,0.037,0.0369,0.0369,0.0364,0.0352,0.0357,0.0357,0.0361,0.0356,0.0356,0.0341,0.034,0.0339,0.0332,0.0331,0.0329,0.0328,0.0328,0.0328,0,0,0,0,0,0,0,0.0353,0.0354,0.0373,0.037,0.0369,0.0357,0.0358,0.0353,0.0352,0.036,0.0359,0.036,0.0341,0.034,0.0338,0.0331,0.0329,0.0328,0.0328,0.0327,0.0326,0.0326,0,0,0,0,0,0,0.0357,0.0354,0.0373,0.0373,0.0361,0.0358,0.0359,0.0366,0.0353,0.0351,0.036,0.0359,0.0341,0.0339,0.0338,0.035,0.0328,0.0327,0.0327,0.0326,0.0326,0.0326,0,0,0,0,0,0,0.0356,0.0359,0.0373,0.0363,0.0364,0.0359,0.0367,0.0366,0.0366,0.0353,0.035,0.0362,0.0341,0.0338,0.0339,0.0348,0.0327,0.0326,0.0325,0.0326,0.0326,0.0367,0,0,0,0,0,0,0.0356,0.0359,0.0364,0.0364,0.0365,0.038,0.0367,0.0366,0.0367,0.0366,0.0354,0.0351,0.034,0.034,0.0338,0.0347,0.0326,0.0325,0.0325,0.0326,0.0366,0.0369,0.0372,0,0,0,0,0,0.0355,0.0365,0.0365,0.0367,0.0373,0.038,0.038,0.0374,0.0368,0.0373,0.0365,0.0352,0.0343,0.034,0.0338,0.0346,0.0324,0.0325,0.0326,0.0364,0.0369,0.0372,0,0,0,0,0,0,0.0355,0.0365,0.0364,0.0377,0.038,0.0378,0.0382,0.0378,0.0376,0.0374,0.0359,0.0356,0.0359,0.0347,0.0344,0.0347,0.033,0.0331,0.036,0.0364,0.0368,0.0374,0.0325,0,0,0,0,0,0.0359,0.037,0.0375,0.0385,0.0388,0.0386,0.0387,0.0385,0.0383,0.0382,0.0372,0.0363,0.036,0.0358,0.0351,0.0355,0.0343,0.0358,0.0362,0.0365,0.0368,0.036,0.0364,0.0329,0.0329,0.0329,0,0,0.0361,0.0368,0.0374,0.0386,0.0388,0.0401,0.0386,0.0393,0.0404,0.0379,0.0388,0.0375,0.0364,0.0368,0.0368,0.036,0.0368,0.0366,0.0368,0.037,0.0362,0.0365,0.0368,0.033,0.033,0.0329,0,0,0.0375,0.0379,0.0395,0.0402,0.041,0.0411,0.0415,0.0416,0.0417,0.0425,0.0409,0.0403,0.0399,0.0392,0.0389,0.0407,0.0387,0.0403,0.0426,0.0419,0.0422,0.0424,0.0415,0.0416,0.0405,0.0405,0.0405,0,0.0376,0.04,0.0399,0.0416,0.0427,0.0419,0.0439,0.0441,0.0441,0.0445,0.0433,0.0426,0.0412,0.0421,0.0424,0.0416,0.0406,0.0413,0.0424,0.0426,0.0428,0.0418,0.0419,0.0407,0.0406,0.0406,0.0406,0,0.0404,0.0422,0.0432,0.0454,0.0464,0.0479,0.0485,0.0491,0.0489,0.0488,0.0493,0.0474,0.0468,0.0462,0.0449,0.0455,0.0442,0.043,0.0415,0.0434,0.0422,0.0422,0.041,0.0409,0.0408,0.0408,0,0,0.0411,0.0445,0.0449,0.047,0.0487,0.0501,0.052,0.0539,0.0555,0.0544,0.0562,0.0545,0.0526,0.052,0.0499,0.0489,0.0489,0.0466,0.0464,0.046,0.0472,0.0487,0.0489,0.0479,0.0479,0.0479,0.046,0,0.0434,0.0477,0.0487,0.0528,0.0552,0.0556,0.0579,0.0591,0.0593,0.0606,0.0586,0.0592,0.0552,0.055,0.0533,0.0503,0.0491,0.0496,0.0452,0.0451,0.0465,0.049,0.0549,0.0539,0.046,0.046,0.046,0,0.046,0.0488,0.0533,0.0577,0.0587,0.0608,0.0643,0.0663,0.0674,0.0676,0.0668,0.0649,0.0635,0.06,0.0553,0.0558,0.0517,0.049,0.0488,0.0489,0.0467,0.0506,0.0542,0.0563,0.046,0.046,0.046,0,0.0474,0.0521,0.0561,0.0576,0.0619,0.064,0.0663,0.0682,0.071,0.0719,0.0737,0.0705,0.0704,0.0648,0.0582,0.0569,0.0533,0.0508,0.0483,0.0483,0.0518,0.0522,0.0573,0.0477,0.0477,0.0477,0.0477,0,0.05,0.0531,0.0572,0.0596,0.0647,0.0666,0.0716,0.0731,0.0762,0.0806,0.0772,0.0798,0.0716,0.0684,0.0609,0.0553,0.0551,0.0496,0.0484,0.0534,0.0539,0.0545,0.0536,0.0476,0.0476,0.0476,0.0477,0,0.0511,0.0537,0.0587,0.0638,0.0657,0.0694,0.0758,0.0795,0.0817,0.0874,0.0883,0.0873,0.0839,0.0752,0.0671,0.0603,0.056,0.0515,0.0578,0.0575,0.0573,0.0562,0.0554,0.0618,0.0489,0.049,0.049,0,0.0521,0.0548,0.0615,0.065,0.0675,0.0732,0.0778,0.0819,0.0865,0.0927,0.0961,0.0949,0.0962,0.0849,0.0733,0.0621,0.0596,0.0586,0.0571,0.0595,0.0574,0.0544,0.0598,0.063,0.0631,0.0633,0.0634,0,0.054,0.0562,0.0605,0.0675,0.0729,0.0798,0.0865,0.0912,0.0974,0.1034,0.1104,0.1122,0.1037,0.0978,0.0824,0.073,0.0641,0.0606,0.062,0.0686,0.0668,0.0718,0.0614,0.0644,0.0643,0.0642,0.0641,0.0641,0.055,0.0582,0.0638,0.0707,0.0773,0.0858,0.092,0.1005,0.1101,0.1204,0.1216,0.1295,0.1209,0.1024,0.0897,0.0751,0.0725,0.0717,0.0699,0.0664,0.0742,0.0661,0.0684,0.0683,0.0683,0.0682,0.0682,0,0.0564,0.0607,0.0668,0.0754,0.0827,0.0863,0.0978,0.1054,0.1181,0.1307,0.1386,0.1474,0.1346,0.1186,0.0977,0.088,0.0843,0.0825,0.0815,0.0867,0.0793,0.082,0.0887,0.0887,0.0887,0.0887,0.0887,0.0887,0.0574,0.0631,0.0666,0.0783,0.0847,0.0952,0.1022,0.115,0.1275,0.148,0.1618,0.1709,0.1692,0.1224,0.1016,0.0958,0.096,0.0895,0.0912,0.0869,0.0858,0.0848,0.0873,0.0951,0.0951,0.1036,0.1036,0.1037]}],[{"header":{"parameterUnit":"m.s-1","parameterCategory":2,"la1":30.2991,"la2":30.254,"lo1":-89.0895,"lo2":-89.0444,"dy":0.0017,"dx":0.0017,"nx":28,"ny":28,"refTime":"2024-06-06T03:00:00:Z","depth":"2","parameterNumber":2,"parameterNumberName":"U-component_of_CURRENTS"},"data":[0,0,0,0,0,0,0,0,0,0,0,0,0,0,0,0,0,0,0,0,0,0,0,0,0,0,0,0,0,0,0,0,0,0,0,0,0,0,0,0,0,0,0,0,0,0,0,0,0,0,0,0,0,0,0,0,0,0,0.1761,0.1761,0,0.1757,0.1757,0.1757,0.1743,0.1743,0.1743,0.1742,0.1728,0.1728,0.1727,0,0,0,0,0,0,0,0,0,0,0,0,0,0.1776,0.1776,0.1761,0.1761,0.1761,0.1757,0.1757,0.1757,0.1743,0.1743,0.1743,0.1742,0.1728,0.1728,0.1727,0,0,0,0,0,0,0,0,0,0,0,0,0,0.177,0.1775,0.1761,0.1755,0.1754,0.1757,0.1757,0.1757,0.1743,0.1743,0.1743,0.1742,0.1728,0.1728,0.1727,0.1733,0,0,0.1727,0.1726,0,0,0,0,0,0,0,0,0.177,0.1769,0.1755,0.1755,0.1754,0.1751,0.1757,0.1749,0.1743,0.1746,0.1742,0.1742,0.1735,0.1735,0.1733,0.1732,0.1731,0.1726,0.1726,0.1726,0.1726,0,0,0,0,0,0,0,0.177,0.1769,0.1759,0.1756,0.1755,0.1759,0.1757,0.1755,0.1742,0.1746,0.1745,0.1746,0.1735,0.1734,0.1733,0.1731,0.1726,0.1726,0.1726,0.1726,0.1754,0.1755,0,0,0,0,0,0,0.1772,0.1769,0.1759,0.1759,0.1763,0.1759,0.1757,0.1752,0.1742,0.1741,0.1747,0.1746,0.1734,0.1733,0.1732,0.1749,0.1726,0.1726,0.1726,0.1753,0.1754,0.1755,0,0,0,0,0,0,0.1772,0.1771,0.1759,0.1765,0.1764,0.1759,0.1753,0.1752,0.1753,0.1743,0.1741,0.175,0.1734,0.1733,0.1736,0.1748,0.1726,0.1726,0.1752,0.1753,0.1755,0.1776,0,0,0,0,0,0,0.1773,0.1771,0.1771,0.1765,0.1764,0.1762,0.1754,0.1752,0.1755,0.1753,0.1745,0.1743,0.1734,0.1736,0.1735,0.1747,0.1725,0.1751,0.1753,0.1754,0.1774,0.1778,0.1781,0,0,0,0,0,0.1773,0.1771,0.177,0.177,0.1762,0.1762,0.1762,0.1756,0.1755,0.1756,0.1753,0.1743,0.1746,0.1736,0.1735,0.1747,0.175,0.1752,0.1754,0.1772,0.1777,0.1781,0,0,0,0,0,0,0.1777,0.1769,0.1769,0.1764,0.1765,0.176,0.1762,0.1761,0.176,0.176,0.175,0.1748,0.176,0.1752,0.1741,0.1763,0.1749,0.1751,0.1763,0.1767,0.1771,0.1771,0.1725,0,0,0,0,0,0.1779,0.1774,0.1771,0.1769,0.177,0.1769,0.177,0.1768,0.1766,0.1765,0.1759,0.1759,0.1768,0.1765,0.1769,0.1774,0.1779,0.1784,0.1788,0.1791,0.1792,0.1818,0.1824,0.1762,0.1762,0.1762,0,0,0.1779,0.1776,0.1773,0.177,0.1771,0.1774,0.1768,0.1771,0.1776,0.1764,0.1767,0.1772,0.1774,0.1784,0.1788,0.1777,0.1811,0.1793,0.1796,0.1795,0.1821,0.1827,0.1832,0.1763,0.1763,0.1763,0,0,0.1778,0.1776,0.1773,0.1777,0.178,0.178,0.1783,0.1782,0.1783,0.1792,0.179,0.18,0.1804,0.1807,0.1811,0.1836,0.1834,0.1841,0.1851,0.1877,0.1882,0.1886,0.1899,0.1905,0.1837,0.1837,0.1837,0,0.1783,0.1773,0.1774,0.1777,0.1778,0.1785,0.1785,0.1793,0.1793,0.1798,0.1796,0.1819,0.1817,0.1835,0.1844,0.1843,0.1854,0.1832,0.1881,0.1885,0.189,0.1902,0.1908,0.1838,0.1838,0.1838,0.1838,0,0.1779,0.1776,0.1777,0.178,0.1785,0.1786,0.1797,0.1805,0.1813,0.182,0.1842,0.1846,0.1857,0.1864,0.1861,0.1891,0.1888,0.1886,0.1868,0.1897,0.1908,0.1914,0.184,0.1839,0.1839,0.1839,0,0,0.1771,0.1772,0.1772,0.1772,0.1784,0.1785,0.1804,0.1816,0.1831,0.1845,0.1864,0.1883,0.1888,0.1894,0.1895,0.1914,0.1952,0.1912,0.1913,0.1921,0.2005,0.1958,0.1959,0.1961,0.1963,0.1964,0.2,0,0.1766,0.1763,0.1767,0.1769,0.1768,0.1784,0.18,0.1819,0.1839,0.1863,0.1884,0.1907,0.19,0.1911,0.193,0.1952,0.1969,0.1942,0.1979,0.198,0.1931,0.1965,0.179,0.1803,0.2005,0.2006,0.2007,0,0.1755,0.1755,0.1751,0.1758,0.176,0.1769,0.1793,0.181,0.1853,0.1871,0.1902,0.1923,0.1956,0.1949,0.1996,0.1982,0.1994,0.2008,0.2009,0.1961,0.1943,0.1808,0.1806,0.2016,0.2015,0.2015,0.2014,0,0.1738,0.1741,0.1733,0.1736,0.1752,0.1759,0.1774,0.1812,0.1829,0.1883,0.1907,0.1949,0.1974,0.2005,0.203,0.2021,0.2082,0.2072,0.2039,0.2036,0.1891,0.1872,0.2106,0.2106,0.2106,0.2106,0.2106,0,0.1721,0.1716,0.1725,0.1722,0.1724,0.1747,0.1761,0.1789,0.1833,0.1859,0.1909,0.1939,0.1993,0.2031,0.2048,0.206,0.2097,0.2047,0.2046,0.1893,0.1875,0.2061,0.2055,0.2108,0.2107,0.2107,0.2107,0,0.1697,0.1702,0.1694,0.1707,0.1713,0.1717,0.1744,0.1759,0.181,0.185,0.1871,0.1943,0.1993,0.2034,0.2088,0.2075,0.2098,0.209,0.1902,0.1878,0.2028,0.2023,0.2059,0.2058,0.2057,0.2056,0.2055,0,0.1681,0.1674,0.1677,0.1674,0.1677,0.1688,0.1695,0.1741,0.1761,0.1846,0.1863,0.1935,0.1968,0.2026,0.2012,0.2027,0.2081,0.1877,0.1826,0.203,0.2026,0.2023,0.2019,0.1641,0.1637,0.1634,0.1631,0,0.1652,0.1653,0.1647,0.1639,0.164,0.1636,0.1657,0.1667,0.1729,0.1765,0.1819,0.1859,0.1908,0.1843,0.1863,0.1848,0.186,0.1809,0.2076,0.1683,0.164,0.1634,0.1644,0.1601,0.1604,0.1607,0.1608,0.1609,0.163,0.1616,0.1608,0.1592,0.1593,0.158,0.1561,0.1588,0.1606,0.1638,0.1723,0.172,0.1736,0.1675,0.1618,0.1567,0.1708,0.1631,0.1639,0.1652,0.16,0.1557,0.1493,0.1495,0.1497,0.1499,0.1501,0,0.159,0.1577,0.1563,0.1533,0.1504,0.1528,0.1525,0.1489,0.1479,0.1529,0.1552,0.1424,0.1377,0.1391,0.1263,0.1263,0.123,0.1209,0.1152,0.1183,0.1211,0.1134,0.0905,0.0903,0.0901,0.09,0,0,0.157,0.1535,0.1517,0.1448,0.1431,0.1374,0.1359,0.132,0.1324,0.1285,0.1264,0.1353,0.1382,0.1144,0.1099,0.0984,0.1078,0.0937,0.1419,0.1386,0.1411,0.1461,0.1381,0,0,0,0,0]},{"header":{"parameterUnit":"m.s-1","parameterCategory":2,"la1":30.2991,"la2":30.254,"lo1":-89.0895,"lo2":-89.0444,"dy":0.0017,"dx":0.0017,"nx":28,"ny":28,"refTime":"2024-06-06T03:00:00:Z","depth":"2","parameterNumber":3,"parameterNumberName":"V-component_of_CURRENTS"},"data":[0,0,0,0,0,0,0,0,0,0,0,0,0,0,0,0,0,0,0,0,0,0,0,0,0,0,0,0,0,0,0,0,0,0,0,0,0,0,0,0,0,0,0,0,0,0,0,0,0,0,0,0,0,0,0,0,0,0,0.0278,0.0278,0,0.0274,0.0274,0.0274,0.0263,0.0263,0.0263,0.0263,0.0241,0.024,0.024,0,0,0,0,0,0,0,0,0,0,0,0,0,0.0253,0.0253,0.0278,0.0278,0.0278,0.0274,0.0274,0.0274,0.0263,0.0263,0.0263,0.0263,0.0241,0.024,0.024,0,0,0,0,0,0,0,0,0,0,0,0,0,0.0257,0.0253,0.0278,0.0273,0.0273,0.0274,0.0274,0.0274,0.0263,0.0263,0.0263,0.0263,0.0241,0.024,0.024,0.0241,0,0,0.0238,0.0238,0,0,0,0,0,0,0,0,0.0257,0.0258,0.0274,0.0273,0.0273,0.027,0.0257,0.0262,0.0263,0.0266,0.0263,0.0263,0.0249,0.0248,0.0247,0.024,0.0239,0.0238,0.0237,0.0237,0.0237,0,0,0,0,0,0,0,0.0257,0.0258,0.0276,0.0274,0.0273,0.0262,0.0263,0.0258,0.0258,0.0266,0.0265,0.0266,0.0249,0.0248,0.0247,0.0239,0.0238,0.0237,0.0237,0.0237,0.0235,0.0235,0,0,0,0,0,0,0.026,0.0258,0.0276,0.0276,0.0265,0.0263,0.0264,0.027,0.0259,0.0257,0.0266,0.0266,0.0249,0.0247,0.0246,0.0258,0.0237,0.0237,0.0236,0.0234,0.0235,0.0235,0,0,0,0,0,0,0.026,0.0262,0.0276,0.0267,0.0268,0.0264,0.0272,0.027,0.0272,0.0259,0.0257,0.0269,0.0249,0.0247,0.0247,0.0257,0.0236,0.0236,0.0234,0.0234,0.0235,0.0275,0,0,0,0,0,0,0.0259,0.0262,0.0268,0.0267,0.0269,0.0283,0.0272,0.0271,0.0273,0.0272,0.0261,0.0259,0.0248,0.0248,0.0247,0.0255,0.0235,0.0233,0.0234,0.0235,0.0274,0.0277,0.028,0,0,0,0,0,0.0258,0.0268,0.0268,0.027,0.0277,0.0284,0.0283,0.0279,0.0274,0.0278,0.0271,0.0259,0.0251,0.0248,0.0246,0.0255,0.0233,0.0234,0.0235,0.0272,0.0276,0.028,0,0,0,0,0,0,0.0259,0.0268,0.0268,0.028,0.0284,0.0282,0.0286,0.0283,0.0281,0.028,0.0266,0.0263,0.0266,0.0255,0.0252,0.0255,0.0239,0.0239,0.0268,0.0272,0.0275,0.0282,0.0235,0,0,0,0,0,0.0262,0.0273,0.0278,0.0288,0.0292,0.029,0.0291,0.029,0.0288,0.0287,0.0279,0.027,0.0268,0.0266,0.0259,0.0263,0.0251,0.0266,0.0269,0.0272,0.0276,0.0268,0.0271,0.0237,0.0237,0.0237,0,0,0.0264,0.0272,0.0277,0.0289,0.0291,0.0304,0.029,0.0298,0.0309,0.0285,0.0294,0.0282,0.0271,0.0275,0.0275,0.0268,0.0275,0.0273,0.0276,0.0278,0.0269,0.0272,0.0275,0.0238,0.0238,0.0238,0,0,0.0278,0.0283,0.0297,0.0304,0.0313,0.0314,0.0319,0.032,0.0322,0.033,0.0315,0.031,0.0305,0.0298,0.0295,0.0313,0.0293,0.0308,0.0332,0.0324,0.0327,0.033,0.032,0.0321,0.031,0.0311,0.0311,0,0.0279,0.0302,0.0302,0.0319,0.0329,0.0322,0.0342,0.0344,0.0344,0.0349,0.0339,0.0331,0.0318,0.0326,0.0329,0.0321,0.0312,0.0319,0.0329,0.0331,0.0333,0.0323,0.0324,0.0313,0.0312,0.0312,0.0312,0,0.0306,0.0323,0.0333,0.0355,0.0365,0.038,0.0386,0.0393,0.0392,0.0391,0.0396,0.0377,0.0372,0.0366,0.0353,0.0359,0.0347,0.0335,0.0321,0.0339,0.0327,0.0327,0.0315,0.0315,0.0314,0.0314,0,0,0.0313,0.0346,0.0351,0.0371,0.0388,0.0401,0.042,0.0438,0.0454,0.0444,0.0462,0.0446,0.0428,0.0423,0.0402,0.0393,0.0393,0.037,0.0369,0.0365,0.0376,0.0389,0.039,0.0383,0.0383,0.0383,0.0364,0,0.0336,0.0378,0.0387,0.0428,0.0451,0.0455,0.0477,0.0489,0.0492,0.0504,0.0484,0.0491,0.0453,0.0452,0.0436,0.0406,0.0395,0.0399,0.0356,0.0355,0.0368,0.0392,0.0385,0.0369,0.0363,0.0363,0.0363,0,0.0361,0.0389,0.0433,0.0475,0.0485,0.0506,0.054,0.0559,0.057,0.0572,0.0565,0.0547,0.0533,0.05,0.0455,0.0459,0.0421,0.0393,0.0392,0.0391,0.0369,0.0349,0.0369,0.0363,0.0363,0.0363,0.0363,0,0.0376,0.0422,0.0461,0.0475,0.0517,0.0538,0.056,0.0579,0.0606,0.0615,0.0632,0.0602,0.06,0.0546,0.0483,0.0471,0.0434,0.041,0.0384,0.0384,0.0364,0.0362,0.0379,0.0379,0.0379,0.0379,0.0379,0,0.0402,0.0433,0.0472,0.0496,0.0547,0.0564,0.0614,0.0628,0.0657,0.07,0.0667,0.0691,0.0612,0.058,0.0508,0.0453,0.0452,0.0397,0.0385,0.0378,0.0378,0.0359,0.0357,0.0379,0.0379,0.0379,0.0379,0,0.0414,0.0439,0.0488,0.0538,0.0557,0.0593,0.0656,0.0691,0.0712,0.0766,0.0776,0.0763,0.0729,0.0645,0.0566,0.05,0.0436,0.0413,0.0411,0.0401,0.0382,0.0382,0.0387,0.0387,0.0387,0.0388,0.0388,0,0.0425,0.0451,0.0516,0.0551,0.0576,0.0632,0.0677,0.0716,0.076,0.0817,0.0849,0.0836,0.0843,0.0732,0.0611,0.05,0.0464,0.0414,0.0391,0.0397,0.0385,0.0385,0.0384,0.0373,0.0373,0.0373,0.0373,0,0.0444,0.0466,0.0508,0.0577,0.063,0.0697,0.0762,0.0806,0.0864,0.0919,0.0982,0.0995,0.0902,0.08,0.0647,0.0555,0.0431,0.0414,0.0421,0.0381,0.0385,0.0373,0.0373,0.0374,0.0374,0.0374,0.0374,0.0374,0.0455,0.0486,0.0541,0.0609,0.0673,0.0755,0.0815,0.0891,0.098,0.106,0.1071,0.1094,0.0963,0.0782,0.0626,0.0454,0.0476,0.0394,0.0393,0.0392,0.0403,0.0408,0.0403,0.0403,0.0403,0.0403,0.0403,0,0.0469,0.0512,0.0571,0.0655,0.0724,0.0762,0.087,0.093,0.1043,0.112,0.1178,0.1051,0.0948,0.0784,0.0553,0.0423,0.0382,0.0348,0.0329,0.033,0.0331,0.0337,0.032,0.032,0.0319,0.0318,0,0,0.0479,0.0533,0.0566,0.068,0.0744,0.0841,0.0908,0.1004,0.1083,0.1155,0.1176,0.1184,0.1015,0.0818,0.0624,0.0482,0.0429,0.0435,0.0519,0.0521,0.0523,0.0378,0.0392,0,0,0,0,0]}],[{"header":{"parameterUnit":"m.s-1","parameterCategory":2,"la1":30.2991,"la2":30.254,"lo1":-89.0895,"lo2":-89.0444,"dy":0.0017,"dx":0.0017,"nx":28,"ny":28,"refTime":"2024-06-06T03:00:00:Z","depth":"4","parameterNumber":2,"parameterNumberName":"U-component_of_CURRENTS"},"data":[0,0,0,0,0,0,0,0,0,0,0,0,0,0,0,0,0,0,0,0,0,0,0,0,0,0,0,0,0,0,0,0,0,0,0,0,0,0,0,0,0,0,0,0,0,0,0,0,0,0,0,0,0,0,0,0,0,0,0.116,0.1161,0,0.1207,0.1208,0.1208,0.1246,0.1247,0.1247,0.1248,0.1302,0.1303,0.1304,0,0,0,0,0,0,0,0,0,0,0,0,0,0.1117,0.1117,0.116,0.1161,0.1161,0.1207,0.1208,0.1208,0.1246,0.1247,0.1247,0.1248,0.1301,0.1302,0.1304,0,0,0,0,0,0,0,0,0,0,0,0,0,0.1146,0.1118,0.116,0.1186,0.1189,0.1207,0.1208,0.1209,0.1246,0.1247,0.1247,0.1248,0.1301,0.1302,0.1304,0.13,0,0,0.1309,0.1309,0,0,0,0,0,0,0,0,0.1145,0.1148,0.1182,0.1184,0.1188,0.1222,0.1213,0.124,0.1246,0.1224,0.1248,0.1248,0.1276,0.1279,0.1286,0.1303,0.1305,0.1309,0.131,0.131,0.1311,0,0,0,0,0,0,0,0.1143,0.1146,0.1178,0.1182,0.1186,0.1201,0.1205,0.1218,0.1245,0.1226,0.1229,0.1235,0.1277,0.1284,0.1287,0.1306,0.1309,0.131,0.1311,0.1312,0.1391,0.1392,0,0,0,0,0,0,0.1137,0.1144,0.1177,0.118,0.1168,0.1201,0.1206,0.121,0.1245,0.1251,0.1234,0.1236,0.1281,0.1285,0.1289,0.1346,0.131,0.1312,0.1313,0.139,0.1391,0.1393,0,0,0,0,0,0,0.1135,0.1139,0.1175,0.1164,0.1169,0.1201,0.1205,0.1211,0.1241,0.1251,0.1258,0.1261,0.1282,0.1287,0.1322,0.1346,0.1312,0.1314,0.1388,0.139,0.1392,0.1421,0,0,0,0,0,0,0.1134,0.1138,0.1152,0.1163,0.117,0.1198,0.1204,0.1211,0.1242,0.1246,0.1276,0.1281,0.1283,0.132,0.1324,0.1348,0.1315,0.1387,0.1389,0.1391,0.1419,0.1424,0.1428,0,0,0,0,0,0.1132,0.1142,0.1152,0.1157,0.1183,0.1199,0.1204,0.1228,0.1243,0.1258,0.1282,0.1281,0.1337,0.1322,0.1326,0.1351,0.1386,0.1389,0.1391,0.1417,0.1423,0.1428,0,0,0,0,0,0,0.1132,0.1147,0.1158,0.1173,0.1192,0.1206,0.1225,0.124,0.1271,0.1284,0.1294,0.13,0.1341,0.1342,0.1326,0.1381,0.1362,0.1366,0.138,0.1386,0.1391,0.1385,0.1316,0,0,0,0,0,0.1137,0.115,0.1165,0.1181,0.1191,0.1214,0.1229,0.1245,0.1267,0.1282,0.1302,0.1327,0.1351,0.1366,0.1385,0.1412,0.1412,0.1432,0.1437,0.1441,0.144,0.1466,0.1472,0.1401,0.1401,0.1401,0,0,0.1142,0.1153,0.1162,0.1183,0.1201,0.1218,0.1225,0.1253,0.1275,0.1282,0.1326,0.1346,0.1363,0.1397,0.1416,0.1404,0.1462,0.1444,0.1447,0.1445,0.1469,0.1476,0.1482,0.1403,0.1403,0.1402,0,0,0.1149,0.1169,0.118,0.1197,0.1226,0.1238,0.1251,0.1277,0.13,0.1339,0.1353,0.1386,0.1423,0.1436,0.1448,0.1489,0.1487,0.1502,0.152,0.1545,0.1551,0.1556,0.1563,0.1568,0.1502,0.1502,0.1502,0,0.1159,0.117,0.1188,0.1204,0.1221,0.1249,0.1266,0.1292,0.1329,0.1349,0.136,0.1424,0.144,0.1476,0.1494,0.15,0.1509,0.1495,0.155,0.1555,0.156,0.1566,0.1571,0.1504,0.1504,0.1504,0.1503,0,0.1165,0.1187,0.1197,0.1225,0.1246,0.1267,0.1297,0.1329,0.1363,0.1386,0.144,0.1465,0.15,0.1514,0.1519,0.1562,0.1556,0.1554,0.1533,0.1569,0.1573,0.1578,0.1506,0.1506,0.1505,0.1505,0,0,0.1154,0.1193,0.12,0.1217,0.1259,0.1273,0.1317,0.1355,0.1388,0.1434,0.1474,0.1521,0.1539,0.1553,0.1566,0.1588,0.163,0.1589,0.159,0.159,0.1679,0.1557,0.155,0.1642,0.1644,0.1645,0.1668,0,0.1157,0.1183,0.1204,0.1239,0.1254,0.1295,0.133,0.1373,0.1417,0.1464,0.1502,0.1548,0.1552,0.1578,0.1602,0.1628,0.1647,0.1623,0.165,0.165,0.1531,0.1553,0.1648,0.1672,0.1673,0.1674,0.1674,0,0.115,0.117,0.12,0.1244,0.1256,0.1287,0.1347,0.1383,0.1452,0.1487,0.1537,0.157,0.1619,0.1617,0.1671,0.166,0.1673,0.1685,0.1686,0.1563,0.1536,0.163,0.1684,0.1683,0.1682,0.1682,0.1681,0,0.112,0.1165,0.1189,0.1205,0.1261,0.1292,0.133,0.1396,0.143,0.1509,0.1543,0.1601,0.1639,0.1672,0.17,0.1697,0.1748,0.1744,0.1641,0.1632,0.1723,0.1718,0.1776,0.1776,0.1776,0.1776,0.1776,0,0.1098,0.1121,0.1183,0.1196,0.1233,0.1283,0.1333,0.138,0.1449,0.1485,0.1556,0.1584,0.1659,0.1694,0.1712,0.1684,0.1758,0.164,0.1629,0.1735,0.1731,0.1727,0.1721,0.1777,0.1776,0.1776,0.1776,0,0.1055,0.1096,0.1128,0.1195,0.122,0.125,0.1327,0.1357,0.1433,0.1484,0.1512,0.1589,0.1627,0.1676,0.1727,0.1681,0.168,0.1652,0.1757,0.1752,0.1545,0.1541,0.1533,0.1529,0.1526,0.1523,0.152,0,0.1032,0.1045,0.1119,0.1141,0.1176,0.1231,0.1263,0.1343,0.1371,0.1468,0.1479,0.1548,0.1587,0.1553,0.1615,0.1623,0.1608,0.159,0.1567,0.1529,0.1521,0.1522,0.1522,0.1515,0.1514,0.1513,0.1512,0,0.0987,0.1025,0.1052,0.1097,0.1139,0.117,0.1225,0.1233,0.1319,0.1397,0.1405,0.142,0.1451,0.1475,0.1486,0.1495,0.1592,0.1553,0.1561,0.1538,0.1507,0.1502,0.1506,0.15,0.1501,0.1503,0.1503,0,0.096,0.0967,0.1011,0.1038,0.1086,0.1096,0.1132,0.1156,0.1189,0.129,0.1289,0.1362,0.1434,0.1408,0.1425,0.1414,0.1394,0.1347,0.1365,0.1379,0.1317,0.1254,0.1155,0,0,0,0,0,0.0924,0.0922,0.0946,0.0968,0.1011,0.1037,0.1096,0.1134,0.1213,0.1182,0.1229,0.125,0.1257,0.1295,0.1253,0.1364,0.1408,0.1308,0.1366,0.1432,0.1446,0.1386,0,0,0,0,0,0,0.09,0.0922,0.092,0.0903,0.0906,0.0941,0.0976,0.1032,0.1014,0.11,0.111,0.1169,0.1198,0.1268,0.1228,0.1239,0.1247,0.1354,0.135,0.1424,0.1437,0.1448,0.1392,0,0,0,0,0]},{"header":{"parameterUnit":"m.s-1","parameterCategory":2,"la1":30.2991,"la2":30.254,"lo1":-89.0895,"lo2":-89.0444,"dy":0.0017,"dx":0.0017,"nx":28,"ny":28,"refTime":"2024-06-06T03:00:00:Z","depth":"4","parameterNumber":3,"parameterNumberName":"V-component_of_CURRENTS"},"data":[0,0,0,0,0,0,0,0,0,0,0,0,0,0,0,0,0,0,0,0,0,0,0,0,0,0,0,0,0,0,0,0,0,0,0,0,0,0,0,0,0,0,0,0,0,0,0,0,0,0,0,0,0,0,0,0,0,0,0.0143,0.0143,0,0.0147,0.0147,0.0147,0.0145,0.0145,0.0145,0.0145,0.0137,0.0137,0.0137,0,0,0,0,0,0,0,0,0,0,0,0,0,0.0118,0.0118,0.0143,0.0143,0.0143,0.0147,0.0147,0.0147,0.0145,0.0145,0.0145,0.0145,0.0137,0.0137,0.0137,0,0,0,0,0,0,0,0,0,0,0,0,0,0.0126,0.0119,0.0143,0.0143,0.0143,0.0147,0.0147,0.0147,0.0145,0.0145,0.0145,0.0145,0.0137,0.0137,0.0137,0.0138,0,0,0.0136,0.0136,0,0,0,0,0,0,0,0,0.0125,0.0127,0.0143,0.0143,0.0143,0.0146,0.0136,0.0144,0.0145,0.0144,0.0145,0.0145,0.0139,0.0139,0.014,0.0137,0.0137,0.0136,0.0136,0.0136,0.0136,0,0,0,0,0,0,0,0.0125,0.0126,0.0144,0.0143,0.0143,0.0137,0.0139,0.0137,0.0142,0.0144,0.0144,0.0145,0.0139,0.014,0.0139,0.0137,0.0136,0.0136,0.0136,0.0136,0.0143,0.0143,0,0,0,0,0,0,0.0126,0.0126,0.0144,0.0144,0.0134,0.0138,0.0139,0.0145,0.0142,0.0142,0.0145,0.0145,0.014,0.014,0.0139,0.0155,0.0136,0.0136,0.0136,0.0143,0.0143,0.0143,0,0,0,0,0,0,0.0126,0.0128,0.0144,0.0135,0.0137,0.0139,0.0145,0.0145,0.015,0.0143,0.0142,0.015,0.014,0.0139,0.0144,0.0154,0.0136,0.0135,0.0142,0.0143,0.0143,0.0178,0,0,0,0,0,0,0.0125,0.0128,0.0133,0.0135,0.0137,0.0151,0.0145,0.0145,0.015,0.015,0.0147,0.0146,0.014,0.0145,0.0144,0.0154,0.0135,0.0142,0.0142,0.0143,0.0176,0.018,0.0182,0,0,0,0,0,0.0124,0.0132,0.0133,0.0135,0.0144,0.0152,0.0153,0.0153,0.0151,0.0156,0.0155,0.0146,0.0148,0.0145,0.0144,0.0154,0.0142,0.0142,0.0143,0.0175,0.0179,0.0182,0,0,0,0,0,0,0.0123,0.0132,0.0134,0.0144,0.015,0.0152,0.0157,0.0156,0.016,0.016,0.0152,0.0152,0.0159,0.0151,0.0148,0.0157,0.0142,0.0143,0.0167,0.0171,0.0174,0.0178,0.0135,0,0,0,0,0,0.0125,0.0135,0.0141,0.015,0.0154,0.0156,0.0159,0.0161,0.0163,0.0165,0.0162,0.0159,0.016,0.0162,0.0159,0.0166,0.0155,0.017,0.0173,0.0176,0.0179,0.0173,0.0176,0.0146,0.0146,0.0146,0,0,0.0126,0.0134,0.0139,0.015,0.0155,0.0167,0.0158,0.0167,0.0179,0.0163,0.0177,0.017,0.0164,0.0172,0.0175,0.0168,0.0178,0.0177,0.0179,0.0181,0.0174,0.0177,0.0179,0.0146,0.0146,0.0146,0,0,0.0136,0.0142,0.0154,0.0162,0.0172,0.0176,0.018,0.0186,0.0191,0.0203,0.0194,0.0194,0.0196,0.0194,0.0193,0.021,0.0193,0.0208,0.0228,0.0223,0.0226,0.0228,0.0217,0.0217,0.021,0.021,0.021,0,0.0137,0.0156,0.0158,0.0173,0.0184,0.0182,0.02,0.0205,0.0212,0.0219,0.0212,0.0215,0.0207,0.0219,0.0223,0.0218,0.0209,0.0217,0.0227,0.0229,0.0231,0.0219,0.0219,0.0212,0.0212,0.0212,0.0211,0,0.0157,0.0173,0.0181,0.0203,0.0213,0.0228,0.0238,0.0247,0.0251,0.0255,0.0266,0.0255,0.0256,0.0253,0.0244,0.0252,0.024,0.0232,0.022,0.0236,0.0222,0.0222,0.0214,0.0214,0.0213,0.0213,0,0,0.0158,0.019,0.0194,0.0214,0.0233,0.0246,0.0267,0.0287,0.0304,0.0302,0.0322,0.0316,0.0304,0.0302,0.0288,0.0281,0.0281,0.0263,0.0261,0.0254,0.0266,0.0254,0.0253,0.0275,0.0275,0.0275,0.0252,0,0.0175,0.0211,0.0223,0.0261,0.0281,0.0291,0.0314,0.033,0.0338,0.0354,0.0343,0.0355,0.0325,0.0329,0.0316,0.0293,0.0282,0.0288,0.0249,0.0248,0.0238,0.0253,0.0276,0.0251,0.0251,0.0251,0.0251,0,0.0193,0.0218,0.0257,0.0299,0.031,0.0332,0.0369,0.039,0.0406,0.0412,0.0412,0.0402,0.0395,0.0369,0.0332,0.0337,0.0304,0.028,0.0279,0.0257,0.0236,0.0231,0.0251,0.0251,0.0251,0.0251,0.0251,0,0.0199,0.0243,0.0278,0.0292,0.0336,0.0359,0.0384,0.0408,0.0434,0.0451,0.0467,0.0449,0.0451,0.0406,0.0353,0.0345,0.031,0.0293,0.025,0.0248,0.0249,0.0247,0.0267,0.0267,0.0267,0.0267,0.0267,0,0.0215,0.0244,0.0287,0.0308,0.0356,0.0379,0.0429,0.0447,0.0479,0.0515,0.0499,0.0515,0.0461,0.0432,0.0372,0.0313,0.0324,0.0257,0.0245,0.0264,0.0264,0.0249,0.0247,0.0266,0.0266,0.0266,0.0266,0,0.0217,0.0244,0.0289,0.0341,0.0362,0.0398,0.0464,0.0497,0.0523,0.0569,0.058,0.0572,0.0537,0.0474,0.0407,0.0346,0.0285,0.0259,0.0287,0.0276,0.022,0.022,0.021,0.021,0.0209,0.0209,0.0209,0,0.0222,0.0244,0.031,0.0343,0.0371,0.0428,0.047,0.0515,0.0552,0.0602,0.0623,0.0612,0.0594,0.0491,0.0418,0.0308,0.0285,0.0246,0.0228,0.0227,0.0216,0.0217,0.0218,0.0208,0.0208,0.0208,0.0208,0,0.0229,0.0253,0.0291,0.0355,0.0407,0.0469,0.0531,0.056,0.0615,0.064,0.0659,0.0617,0.058,0.0494,0.0414,0.0331,0.0268,0.0241,0.0241,0.0223,0.0224,0.0214,0.0215,0.0206,0.0206,0.0206,0.0206,0,0.0234,0.0258,0.0308,0.0368,0.0432,0.0495,0.0528,0.0578,0.0619,0.0668,0.0672,0.0637,0.062,0.0506,0.0431,0.0353,0.0322,0.0277,0.0274,0.0275,0.0295,0.0305,0.0308,0,0,0,0,0,0.0236,0.0267,0.0318,0.0386,0.045,0.0491,0.0565,0.0594,0.0645,0.0659,0.0667,0.0632,0.0537,0.0501,0.0419,0.041,0.0302,0.0309,0.0245,0.0197,0.0199,0.0211,0,0,0,0,0,0,0.0239,0.0283,0.0313,0.0392,0.0439,0.0512,0.0561,0.0596,0.0604,0.064,0.0592,0.0589,0.0497,0.058,0.041,0.039,0.0332,0.0274,0.0272,0.0196,0.0198,0.02,0.0212,0,0,0,0,0]}]]